Flag for Saudi Arabia Weather past 2 weeks in Riyadh, Saudi Arabia

Now
106 °F

Sunny.


Feels Like: 100 °F
Forecast: 84 / 109 °F
Wind: 12 mph from Northwest

Location: King Khaled International Airport

Current Time: Jul 31, 2014 at 1:26:39 PM

Latest Report: Jul 31, 2014 at 1:00 PM


Visibility: 10 mi

Pressure: 29.68 "Hg

Humidity: 8%

Dew point: 32 °F

Location of RiyadhLocation

Historic Weather in Riyadh — Graph

°F

Riyadh temperature yesterday

Maximum temperature yesterday: 109 °F (at 3:00 PM)
Minimum temperature yesterday: 82 °F (at 6:00 AM)
Average temperature yesterday: 96 °F

Past Weeks' High & Low Weather Summary

 TemperatureHumidityPressure
High111 °F (Jul 18, 3:00 PM)20% (Jul 23, 6:00 AM)29.86 "Hg (Jul 23, 6:00 AM)
Low81 °F (Jul 24, 6:00 AM)5% (Jul 19, 12:00 PM)29.59 "Hg (Jul 18, 4:00 PM)
Average97 °F11%29.70 "Hg
* Reported Jul 16 12:00 Noon — Jul 31 12:00 Noon, Riyadh, Weather by CustomWeather, © 2014

Note: Actual official high and low records may vary slightly from our data, if they occured in-between our weather recording intervals... More about our weather records

Advertising

Riyadh weather history for previous 24 hours

 ConditionsComfort  
Time TempWeatherWind HumidityBarometerVisibility
12:00 PM
Jul 31
106 °FSunny.13 mph8%29.71 "Hg10 mi
11:00 AM104 °FSunny.13 mph9%29.71 "Hg10 mi
10:00 AM104 °FSunny.12 mph9%29.71 "Hg10 mi
9:00 AM99 °FSunny.9 mph11%29.71 "Hg10 mi
8:00 AM93 °FSunny.9 mph12%29.71 "Hg10 mi
7:00 AM86 °FSunny.5 mph14%29.71 "Hg10 mi
6:00 AM81 °FSunny.No wind17%29.71 "Hg10 mi
5:00 AM81 °FClear.No wind18%29.68 "Hg10 mi
4:00 AM81 °FClear.No wind17%29.68 "Hg10 mi
3:00 AM84 °FClear.5 mph15%29.68 "Hg10 mi
2:00 AM84 °FClear.5 mph15%29.68 "Hg10 mi
1:00 AM86 °FClear.3 mph14%29.68 "Hg10 mi
12:00 AM88 °FClear.5 mph13%29.71 "Hg10 mi
11:00 PM
Jul 30
91 °FClear.5 mph12%29.71 "Hg10 mi
10:00 PM93 °FClear.5 mph11%29.71 "Hg10 mi
9:00 PM95 °FClear.5 mph11%29.68 "Hg10 mi
8:00 PM99 °FClear.8 mph10%29.65 "Hg10 mi
7:00 PM100 °FClear.10 mph9%29.65 "Hg10 mi
6:00 PM104 °FSunny.15 mph8%29.62 "Hg10 mi
5:00 PM106 °FSunny.14 mph8%29.62 "Hg10 mi
4:00 PM108 °FSunny.14 mph7%29.62 "Hg6 mi
3:00 PM109 °FSunny.15 mph5%29.65 "Hg3 mi
2:00 PM108 °FSunny.16 mph7%29.65 "Hg3 mi
1:00 PM106 °FSunny.17 mph8%29.65 "Hg4 mi
Weather by CustomWeather, © 2014

See weather overviewHow to use our weather pages